Red Oak, IA

11:53 AM CST on December 16, 2017 (GMT -0600)
Red Oak Municipal

Weather History for KRDK - March, 2013

Change the Weather History Date:

Tuesday, March 5, 2013

  Actual Average Record
Temperature  
Mean Temperature 30 °F -  
Max Temperature 33 °F 44 °F 77 °F (2009)
Min Temperature 26 °F 23 °F -21 °F (1960)
Degree Days  
Heating Degree Days 36    
Moisture  
Dew Point 20 °F    
Average Humidity 67    
Maximum Humidity 87    
Minimum Humidity 60    
Precipitation  
Precipitation 0.00 in - - ()
Sea Level Pressure  
Sea Level Pressure 30.16 in    
Wind  
Wind Speed 17 mph (NW)    
Max Wind Speed 26 mph    
Max Gust Speed 40 mph    
Visibility 9 miles    
Events Snow    
Averages and records for this station are not official NWS values.
T = Trace of Precipitation, MM = Missing Value Source: NWS Daily Summary

Daily Weather History Graph

Daily Weather History Graph

Search for Another Location

Airport or City:

Trip Planner

Search our weather history database for the weather conditions in past years. The results will help you decide how hot, cold, wet, or windy it might be!

Date:

Astronomy

Mar. 05, 2013 Rise Set
Actual Time 6:48 AM CST 6:16 PM CST
Civil Twilight 6:21 AM CST 6:44 PM CST
Nautical Twilight 5:49 AM CST 7:16 PM CST
Astronomical Twilight 5:17 AM CST 7:48 PM CST
Moon 2:03 AM CST (3/5) 11:54 AM CST (3/5)
Length of Visible Light 12h 23m
Length of Day
11h 28m
Last Quarter, 40% of the Moon is Illuminated
Mar 5
Last Quarter
Mar 11
New
Mar 19
First Quarter
Mar 27
Full
Apr 2
Last Quarter

Hourly Weather History & Observations

Time (CST) Temp. Windchill Dew Point Humidity Pressure Visibility Wind Dir Wind Speed Gust Speed Precip Events Conditions
12:15 AM 33.8 °F 23.9 °F 30.2 °F 87% 29.99 in 5.0 mi NW 15.0 mph 19.6 mph N/A Snow Light Snow
12:35 AM 33.8 °F 25.3 °F 28.4 °F 81% 29.98 in 10.0 mi NNW 11.5 mph - N/A   Overcast
12:55 AM 33.8 °F 25.3 °F 26.6 °F 75% 29.99 in 10.0 mi NW 11.5 mph - N/A   Overcast
1:15 AM 33.8 °F 23.9 °F 26.6 °F 75% 30.00 in 10.0 mi NW 15.0 mph 18.4 mph N/A   Overcast
1:35 AM 33.8 °F 22.8 °F 26.6 °F 75% 30.01 in 10.0 mi NW 18.4 mph 26.5 mph N/A   Overcast
1:55 AM 33.8 °F 23.9 °F 21.2 °F 60% 30.03 in 10.0 mi NW 15.0 mph 26.5 mph N/A   Overcast
2:15 AM 32.0 °F 21.6 °F 21.2 °F 64% 30.03 in 10.0 mi NW 15.0 mph 27.6 mph N/A   Overcast
2:35 AM 32.0 °F 20.8 °F 21.2 °F 64% 30.03 in 10.0 mi NW 17.3 mph 28.8 mph N/A   Overcast
2:55 AM 30.2 °F 17.4 °F 19.4 °F 64% 30.03 in 10.0 mi NW 20.7 mph 26.5 mph N/A   Overcast
3:15 AM 30.2 °F 18.1 °F 19.4 °F 64% 30.03 in 10.0 mi NW 18.4 mph 24.2 mph N/A   Scattered Clouds
3:35 AM 28.4 °F 18.5 °F 19.4 °F 69% 30.03 in 10.0 mi NW 11.5 mph 20.7 mph N/A   Clear
3:55 AM 28.4 °F 17.5 °F 19.4 °F 69% 30.04 in 10.0 mi WNW 13.8 mph 21.9 mph N/A   Clear
4:15 AM 28.4 °F 18.0 °F 19.4 °F 69% 30.04 in 10.0 mi WNW 12.7 mph 19.6 mph N/A   Clear
4:35 AM 28.4 °F 18.5 °F 19.4 °F 69% 30.04 in 10.0 mi WNW 11.5 mph 16.1 mph N/A   Scattered Clouds
4:55 AM 28.4 °F 17.5 °F 17.6 °F 64% 30.05 in 10.0 mi WNW 13.8 mph 25.3 mph N/A   Scattered Clouds
5:15 AM 28.4 °F 16.2 °F 17.6 °F 64% 30.05 in 10.0 mi NW 17.3 mph 25.3 mph N/A   Clear
5:35 AM 26.6 °F 14.3 °F 17.6 °F 69% 30.06 in 10.0 mi NW 16.1 mph 24.2 mph N/A   Clear
6:15 AM 26.6 °F 15.2 °F 15.8 °F 64% 30.07 in 10.0 mi WNW 13.8 mph 20.7 mph N/A   Scattered Clouds
7:15 AM 26.6 °F 15.2 °F 17.6 °F 69% 30.08 in 10.0 mi WNW 13.8 mph - N/A   Overcast
7:35 AM 26.6 °F 14.3 °F 17.6 °F 69% 30.08 in 10.0 mi WNW 16.1 mph 20.7 mph N/A   Overcast
7:55 AM 28.4 °F 15.8 °F 17.6 °F 64% 30.07 in 10.0 mi WNW 18.4 mph - N/A   Overcast
8:15 AM 28.4 °F 15.4 °F 19.4 °F 69% 30.08 in 10.0 mi WNW 19.6 mph 25.3 mph N/A   Overcast
8:35 AM 28.4 °F 17.0 °F 19.4 °F 69% 30.09 in 10.0 mi WNW 15.0 mph 23.0 mph N/A   Overcast
8:55 AM 28.4 °F 16.6 °F 19.4 °F 69% 30.09 in 10.0 mi WNW 16.1 mph 25.3 mph N/A   Overcast
9:15 AM 28.4 °F 18.0 °F 19.4 °F 69% 30.09 in 10.0 mi WNW 12.7 mph 24.2 mph N/A   Overcast
9:35 AM 30.2 °F 19.3 °F 21.2 °F 69% 30.09 in 10.0 mi WNW 15.0 mph 23.0 mph N/A   Overcast
9:55 AM 30.2 °F 18.1 °F 21.2 °F 69% 30.09 in 10.0 mi WNW 18.4 mph 28.8 mph N/A   Overcast
10:15 AM 30.2 °F 16.2 °F 21.2 °F 69% 30.09 in 10.0 mi WNW 25.3 mph 33.4 mph N/A   Overcast
10:35 AM 32.0 °F 19.8 °F 21.2 °F 64% 30.09 in 10.0 mi WNW 20.7 mph 33.4 mph N/A   Overcast
10:55 AM 30.2 °F 17.4 °F 21.2 °F 69% 30.10 in 10.0 mi WNW 20.7 mph 33.4 mph N/A   Overcast
11:15 AM 30.2 °F 16.5 °F 21.2 °F 69% 30.11 in 10.0 mi NW 24.2 mph 32.2 mph N/A   Overcast
11:35 AM 30.2 °F 18.1 °F 21.2 °F 69% 30.11 in 10.0 mi WNW 18.4 mph 32.2 mph N/A   Overcast
11:55 AM 32.0 °F 19.2 °F 21.2 °F 64% 30.12 in 7.0 mi NW 23.0 mph 34.5 mph N/A Snow Light Snow
12:15 PM 32.0 °F 18.4 °F 21.2 °F 64% 30.13 in 7.0 mi NW 26.5 mph 36.8 mph N/A   Overcast
12:35 PM 32.0 °F 18.6 °F 21.2 °F 64% 30.14 in 7.0 mi NW 25.3 mph 40.3 mph N/A   Overcast
12:55 PM 32.0 °F 18.9 °F 21.2 °F 64% 30.14 in 5.0 mi NW 24.2 mph 34.5 mph N/A Snow Light Snow
1:15 PM 32.0 °F 18.4 °F 21.2 °F 64% 30.15 in 4.0 mi NW 26.5 mph 32.2 mph N/A Snow Light Snow
1:35 PM 30.2 °F 16.2 °F 23.0 °F 75% 30.15 in 4.0 mi NW 25.3 mph 33.4 mph N/A Snow Light Snow
1:55 PM 30.2 °F 16.5 °F 23.0 °F 75% 30.16 in 7.0 mi NW 24.2 mph 32.2 mph N/A Snow Light Snow
2:15 PM 30.2 °F 18.1 °F 21.2 °F 69% 30.17 in 5.0 mi NW 18.4 mph 28.8 mph N/A Snow Light Snow
2:35 PM 30.2 °F 17.8 °F 21.2 °F 69% 30.18 in 10.0 mi NW 19.6 mph 29.9 mph N/A Snow Light Snow
2:55 PM 32.0 °F 18.6 °F 21.2 °F 64% 30.19 in 10.0 mi NW 25.3 mph 31.1 mph N/A   Overcast
3:15 PM 32.0 °F 19.5 °F 21.2 °F 64% 30.20 in 10.0 mi NW 21.9 mph 36.8 mph N/A   Overcast
3:35 PM 32.0 °F 19.5 °F 21.2 °F 64% 30.21 in 10.0 mi NW 21.9 mph 29.9 mph N/A   Overcast
3:55 PM 30.2 °F 18.1 °F 21.2 °F 69% 30.21 in 10.0 mi NW 18.4 mph 32.2 mph N/A   Overcast
4:15 PM 30.2 °F 17.8 °F 19.4 °F 64% 30.22 in 10.0 mi NW 19.6 mph 31.1 mph N/A   Overcast
4:35 PM 30.2 °F 17.8 °F 19.4 °F 64% 30.22 in 10.0 mi NW 19.6 mph 27.6 mph N/A   Overcast
4:55 PM 30.2 °F 18.1 °F 19.4 °F 64% 30.23 in 10.0 mi NW 18.4 mph 26.5 mph N/A   Overcast
5:15 PM 30.2 °F 18.1 °F 19.4 °F 64% 30.25 in 10.0 mi NNW 18.4 mph 24.2 mph N/A   Overcast
5:35 PM 30.2 °F 18.5 °F 19.4 °F 64% 30.25 in 10.0 mi NNW 17.3 mph 23.0 mph N/A   Overcast
5:55 PM 30.2 °F 18.1 °F 17.6 °F 60% 30.26 in 10.0 mi NW 18.4 mph 25.3 mph N/A   Overcast
6:15 PM 30.2 °F 18.5 °F 17.6 °F 60% 30.27 in 10.0 mi NW 17.3 mph 26.5 mph N/A   Overcast
6:35 PM 30.2 °F 19.8 °F 19.4 °F 64% 30.28 in 10.0 mi NW 13.8 mph 25.3 mph N/A   Overcast
6:55 PM 28.4 °F 16.6 °F 19.4 °F 69% 30.28 in 10.0 mi NW 16.1 mph 21.9 mph N/A   Overcast
7:15 PM 28.4 °F 17.0 °F 19.4 °F 69% 30.28 in 10.0 mi NW 15.0 mph 20.7 mph N/A   Overcast
7:35 PM 28.4 °F 15.4 °F 17.6 °F 64% 30.29 in 10.0 mi NW 19.6 mph 24.2 mph N/A   Overcast
7:55 PM 28.4 °F 16.2 °F 17.6 °F 64% 30.29 in 10.0 mi NW 17.3 mph 25.3 mph N/A   Overcast
8:15 PM 28.4 °F 15.4 °F 17.6 °F 64% 30.29 in 10.0 mi NW 19.6 mph 25.3 mph N/A   Overcast
8:35 PM 28.4 °F 17.0 °F 17.6 °F 64% 30.31 in 10.0 mi NNW 15.0 mph 21.9 mph N/A   Overcast
8:55 PM 28.4 °F 17.5 °F 17.6 °F 64% 30.32 in 10.0 mi NNW 13.8 mph 17.3 mph N/A   Overcast
9:15 PM 28.4 °F 16.6 °F 17.6 °F 64% 30.32 in 10.0 mi NW 16.1 mph - N/A   Overcast
9:35 PM 28.4 °F 17.0 °F 17.6 °F 64% 30.32 in 10.0 mi NW 15.0 mph - N/A   Overcast
9:55 PM 28.4 °F 17.0 °F 17.6 °F 64% 30.33 in 10.0 mi NW 15.0 mph 20.7 mph N/A   Overcast
10:15 PM 28.4 °F 19.1 °F 17.6 °F 64% 30.34 in 10.0 mi NNW 10.4 mph 19.6 mph N/A   Overcast
10:35 PM 28.4 °F 18.0 °F 17.6 °F 64% 30.34 in 10.0 mi NNW 12.7 mph - N/A   Overcast
10:55 PM 28.4 °F 19.1 °F 17.6 °F 64% 30.35 in 10.0 mi NNW 10.4 mph 19.6 mph N/A   Overcast
11:15 PM 26.6 °F 16.8 °F 17.6 °F 69% 30.36 in 10.0 mi NNW 10.4 mph 15.0 mph N/A   Overcast
11:35 PM 26.6 °F 15.7 °F 17.6 °F 69% 30.36 in 10.0 mi NNW 12.7 mph 18.4 mph N/A   Mostly Cloudy
11:55 PM 26.6 °F 16.2 °F 17.6 °F 69% 30.36 in 10.0 mi NNW 11.5 mph - N/A   Mostly Cloudy